"Pseudo-MPEC" for P21JXXW

Created 2023 Sep 21 1:22:32 UT using Find_Orb

Click here for an explanation of pseudo-MPECs

 
 Astrometry: 
     P21JXXW  C2023 08 19?Cipsxa?#[L`3Z#f8:16SK=ciBw:Llxk5g;c?#(C8.]%i`k[UWq.F52
     P21JXXW  C2023 08 19\hK%e#@7or(+9wHXTPUl88L'Sq=bN4p1Wv6By0Yn\;Su8!Tm+/9DF52
     P21JXXW  C2023 08 19?%/7BAstrometryqe1APh=Adp+C?redacted;h8LcP(qw3'k1]07F52
     P21JXXW  C2023 08 19lG3=gD^qfV8PDME2erOpGGg(8S?#De$W(EV@=BvUM#STH?@tojNpF52
     P21JXXW  C2023 09 07kpR*IqaG6e$1Z^(W5]^8k8:02i%qOng[Rj,m7B2p:C*S%;hcyZT8F52
     P21JXXW  C2023 09 07NJ=x'iMO0/[!;Nl8`R^G+cbM-4T6SX-Q_vX4-Aob]wTO^K'vrg_4F52
     P21JXXW  C2023 09 07:fPT^8-=E^VB=k)^:ku8yJPJ,LvMe1g+;C`[m=[,sWI`a3Q7%*;/F52
     P21JXXW  C2023 09 07/![+Npp,29lfO_)0kVAnO'0b2!ApP%re1Fe'qm0cY_#InMj=KM]NF52
     P21JXXW  C2023 09 169SDiY.Dcs%YEsib,(eI+4PuQRXJ],ck*,$G:dg'w2TAua#`d/t:^F52
     P21JXXW  C2023 09 16%F_]JvCgAclickNsyOg!mT)Dg]exiVR+060VOnZLkGGs@GaHo+n]F52
     P21JXXW  C2023 09 16CYyAU8.:HEKYts9d;H85I:wqd9#XvFkOAn^hereYy(!JaPwT*;oRF52
     P21JXXW  C2023 09 18.26769 23 59 59.14 +11 41 21.2    ~9K7b 22.0 GVNEOCPG96
     P21JXXW  C2023 09 18.27291 23 59 58.19 +11 41 26.7    ~9K7b 21.2 GVNEOCPG96
     P21JXXW  C2023 09 18.27814 23 59 57.22 +11 41 31.7    ~9K7b 21.7 GVNEOCPG96
     P21JXXW* C2023 09 19S+!n(MXuPjqP[qO^Q,]3aaN7^(BRN-]*!?13:a#ek_ebhImNaZ6HF52
     P21JXXW  C2023 09 19.Ma7I;iRH6$EGk9bo$S.ioPl=%Sw;V,B=wFX@xZF4^E[P^wyPa+EF52
     P21JXXW  C2023 09 197wbQ`1aF.$CT6c,pct/b/9F,lb\SG[jxx-)^rj^n'Z^DfU-:oIWoF52
     P21JXXW  C2023 09 19U#1kV2MF0K-:c^G,S(A7LaF3\KOQ[RL.NS/8$RAB7B)DJJ5P16c3F52
     P21JXXW  C2023 09 19TE9*Pt6lEtTT32J?TGVvPT!DQeZ;Sh:lLk@c7@b2NpE;@dIguyq)F52
     P21JXXW  C2023 09 19KMR7aGjP;6,V?DP'for0Yw/texplanationrMC9B1,w\3)MuP=%EF52
     P21JXXW KC2023 09 19.43757523 56 31.873+12 00 06.05   ~9JB7 21.72GVNEOCPV06
     P21JXXW KC2023 09 19.43957423 56 31.510+12 00 07.52   ~9JB7 21.80GVNEOCPV06
     P21JXXW KC2023 09 19.44357423 56 30.826+12 00 11.41   ~9JB7 21.43GVNEOCPV06
     P21JXXW KC2023 09 20.19117723 54 21.132+12 11 44.38   ~9K5M 21.51GVNEOCPI52
     P21JXXW KC2023 09 20.19664223 54 20.153+12 11 49.45   ~9K5M 21.17GVNEOCPI52
     P21JXXW KC2023 09 20.20159023 54 19.285+12 11 53.34   ~9K5M 20.90GVNEOCPI52
     P21JXXW KC2023 09 20.20653823 54 18.389+12 11 58.27   ~9K5M 21.78GVNEOCPI52
     P21JXXW KC2023 09 20-'R=!PH(:'ZIURvRkyN_K9r.fG8^L^k.6//@17Z8q)G#YSoX'K=-H21
     P21JXXW KC2023 09 20dj;Q7Tid8ZL(C[HTL\Fxem!xFpW(vN5`Pk0^ZNvo$8[Gabm_';aaH21
     P21JXXW 1C2023 09 20.97032 23 52 05.95 +12 23 23.2    ~9KNq 20.9 VXNEOCP033
     P21JXXW 1C2023 09 20.97391 23 52 05.31 +12 23 26.5    ~9KNq 20.6 VXNEOCP033
     P21JXXW 1C2023 09 20.97749 23 52 04.69 +12 23 29.1    ~9KNq 20.9 VXNEOCP033

Station data:
(033) Karl Schwarzschild Observatory, Tautenburg  (N50.980137 E11.711240)
   Germany.  Observer B. Stecklum. 1.34-m f/3 Schmidt + CCD.
(F52) Pan-STARRS 2, Haleakala  (N20.707382 W156.255910)  US/Hawaii.
   Observers J. Bulger, T. Dukes, T. Lowe, A. Schultz, M. Willman. Measurers
   K. Chambers, S. Chastel, T. de Boer, L. Denneau, J. Fairlamb, H.
   Flewelling, M. Huber, C.-C. Lin, E. Magnier, Y. Ramanjooloo, R. Wainscoat,
   R. Weryk. 1.8-m Ritchey-Chrétien + CCD.
(G96) Mt. Lemmon Survey  (N32.442751 W110.788720)  US/Arizona.  Observers T.
   A. Pruyne, B. M. Africano, E. J. Christensen, G. A. Farneth, D. C. Fuls,
   A. R. Gibbs, A. D. Grauer, H. Gröller, J. A. Johnson, R. A. Kowalski, S.
   M. Larson, G. J. Leonard, D. Rankin, R. L. Seaman, F. C. Shelly, K. W.
   Wierzchoś. 1.5-m reflector + 10K CCD.
(H21) Astronomical Research Observatory, Westfield  (N39.483054 W87.968270)
   US/Illinois.  Observer R. Holmes. Measurers S. Foglia, L. Buzzi, T.
   Linder, R. Holmes. 0.76-m f/3.0 astrograph + CCD0.81-m f/4.0 astrograph +
   CCD0.61-m f/4.5 astrograph + CCD0.40-m f/5.32 astrograph + CCD.
(I52) Steward Observatory, Mt. Lemmon Station  (N32.442544 W110.788920)
   US/Arizona.  Observers T. A. Pruyne, B. M. Africano, E. J. Christensen, G.
   A. Farneth, D. C. Fuls, A. R. Gibbs, A. D. Grauer, H. Gröller, J. A.
   Johnson, R. A. Kowalski, S. M. Larson, G. J. Leonard, D. Rankin, R. L.
   Seaman, F. C. Shelly, K. W. Wierzchoś. 1.0-m prime focus + CCD.
(V06) Catalina Sky Survey-Kuiper  (N32.416844 W110.732550)  US/Arizona.
   Observers T. A. Pruyne, B. M. Africano, E. J. Christensen, G. A. Farneth,
   D. C. Fuls, A. R. Gibbs, A. D. Grauer, H. Gröller, J. A. Johnson, R. A.
   Kowalski, S. M. Larson, G. J. Leonard, D. Rankin, R. L. Seaman, F. C.
   Shelly, K. W. Wierzchoś. 1.55-m reflector + CCD.

Orbital elements:  P21JXXW
   Perihelion 2023 May 6.93186 +/- 0.00144 TT = 22:21:52 (JD 2460071.43186)
Epoch 2023 Sep 20.0 TT = JDT 2460207.5   Earth MOID: 0.4917      AutoNEOCP
M  39.74723508 +/- 0.0043           (J2000 ecliptic)
n   0.29211272 +/- 3.25e-5          Peri.  273.20168 +/- 0.0021
a   2.24958493 +/- 0.000167         Node   353.13172 +/- 0.00051
e   0.4896864 +/- 2.56e-5           Incl.   38.50542 +/- 0.0026
P   3.37                   H 20.43  G  0.15   U  5.8
q 1.14799362 +/- 2.98e-5    Q 3.35117624 +/- 0.000305
From 32 observations 2023 Aug. 19-Sept. 20; mean residual 0".18
Residuals in arcseconds: 
230819 F52  .13+  .11-    230918 G96  .08-  .23-    230919 V06  .35+  .26+    
230819 F52  .02-  .05-    230918 G96  .11-  .12+    230920 I52  .01+  .05+    
230819 F52  .08-  .11+    230918 G96  .40-  .03-    230920 I52  .17-  .08+    
230819 F52  .04-  .04+    230919 F52  .10+  .07-    230920 I52  .06-  .59-    
230907 F52  .18-  .02+    230919 F52  .15+  .07-    230920 I52  .36-  .22-    
230907 F52  .18+  .07-    230919 F52  .09+  .15-    230920 H21  .29-  .39+    
230907 F52  .12-  .01+    230919 F52  .14-  .05+    230920 H21  .17-  .14+    
230907 F52  .14+  .12+    230919 F52  .06+  .06+    230920 033  .06+  .18+    
230916 F52  .10-  .00     230919 F52  .12+  .08+    230920 033  .12-  .30+    
230916 F52  .04-  .09+    230919 V06  .03+  .49+    230920 033  .02-  .27-    
230916 F52  .10+  .24-    230919 V06  .07-  .10+    

Ephemerides (geocentric):
Date (UTC) HH   RA             Dec           delta  r     elong  mag " sig PA
---- --------  ------------   ------------  ------ ------ -----  --- --------
2023 09 21 01  23 51 53.698   +12 24 32.93  .80251 1.7945 166.6 21.8 .049  11
2023 09 21 02  23 51 46.540   +12 25 09.72  .80278 1.7948 166.6 21.8 .049  11
2023 09 21 03  23 51 39.387   +12 25 46.45  .80304 1.7951 166.6 21.8 .050  10
2023 09 21 04  23 51 32.237   +12 26 23.12  .80331 1.7953 166.6 21.8 .050  10
2023 09 21 05  23 51 25.092   +12 26 59.73  .80358 1.7956 166.6 21.8 .051  10
2023 09 21 06  23 51 17.951   +12 27 36.27  .80385 1.7959 166.6 21.8 .051  10
2023 09 21 07  23 51 10.814   +12 28 12.76  .80412 1.7961 166.6 21.8 .052  10
2023 09 21 08  23 51 03.682   +12 28 49.18  .80440 1.7964 166.6 21.8 .053  10
2023 09 21 09  23 50 56.554   +12 29 25.54  .80467 1.7967 166.6 21.8 .053   9
2023 09 21 10  23 50 49.430   +12 30 01.84  .80494 1.7969 166.6 21.8 .054   9
2023 09 21 11  23 50 42.311   +12 30 38.08  .80521 1.7972 166.6 21.8 .054   9
2023 09 21 12  23 50 35.196   +12 31 14.26  .80549 1.7975 166.6 21.8 .055   9
2023 09 21 13  23 50 28.086   +12 31 50.38  .80576 1.7977 166.7 21.8 .055   9
2023 09 21 14  23 50 20.979   +12 32 26.44  .80604 1.7980 166.7 21.8 .056   9
2023 09 21 15  23 50 13.878   +12 33 02.44  .80631 1.7983 166.7 21.8 .057   8
2023 09 21 16  23 50 06.780   +12 33 38.37  .80659 1.7986 166.7 21.8 .057   8
2023 09 21 17  23 49 59.688   +12 34 14.25  .80687 1.7988 166.7 21.8 .058   8
2023 09 21 18  23 49 52.599   +12 34 50.06  .80714 1.7991 166.7 21.8 .058   8
2023 09 21 19  23 49 45.515   +12 35 25.82  .80742 1.7994 166.7 21.8 .059   8
2023 09 21 20  23 49 38.436   +12 36 01.51  .80770 1.7996 166.7 21.8 .060   8
2023 09 21 21  23 49 31.361   +12 36 37.14  .80798 1.7999 166.7 21.8 .060   7
2023 09 21 22  23 49 24.291   +12 37 12.72  .80826 1.8002 166.7 21.8 .061   7
2023 09 21 23  23 49 17.225   +12 37 48.23  .80854 1.8004 166.7 21.8 .061   7
2023 09 22 00  23 49 10.163   +12 38 23.68  .80882 1.8007 166.7 21.8 .062   7
2023 09 22 01  23 49 03.107   +12 38 59.07  .80910 1.8010 166.7 21.8 .062   7
2023 09 22 02  23 48 56.054   +12 39 34.40  .80938 1.8012 166.7 21.8 .063   7
2023 09 22 03  23 48 49.007   +12 40 09.67  .80966 1.8015 166.7 21.8 .064   6
2023 09 22 04  23 48 41.964   +12 40 44.88  .80995 1.8018 166.7 21.8 .064   6
2023 09 22 05  23 48 34.926   +12 41 20.02  .81023 1.8020 166.7 21.8 .065   6
2023 09 22 06  23 48 27.892   +12 41 55.11  .81051 1.8023 166.7 21.8 .065   6
2023 09 22 07  23 48 20.863   +12 42 30.14  .81080 1.8026 166.7 21.8 .066   6
2023 09 22 08  23 48 13.838   +12 43 05.11  .81108 1.8028 166.7 21.8 .067   6
2023 09 22 09  23 48 06.819   +12 43 40.01  .81137 1.8031 166.7 21.8 .067   6
2023 09 22 10  23 47 59.804   +12 44 14.86  .81165 1.8034 166.7 21.8 .068   5
2023 09 22 11  23 47 52.793   +12 44 49.65  .81194 1.8036 166.7 21.8 .068   5
2023 09 22 12  23 47 45.788   +12 45 24.37  .81223 1.8039 166.7 21.8 .069   5
2023 09 22 13  23 47 38.787   +12 45 59.04  .81252 1.8042 166.6 21.8 .070   5
2023 09 22 14  23 47 31.791   +12 46 33.64  .81281 1.8044 166.6 21.8 .070   5
2023 09 22 15  23 47 24.800   +12 47 08.19  .81309 1.8047 166.6 21.8 .071   5
2023 09 22 16  23 47 17.813   +12 47 42.67  .81338 1.8050 166.6 21.8 .072   5
2023 09 22 17  23 47 10.831   +12 48 17.10  .81367 1.8052 166.6 21.8 .072   4
2023 09 22 18  23 47 03.854   +12 48 51.46  .81396 1.8055 166.6 21.8 .073   4
2023 09 22 19  23 46 56.882   +12 49 25.77  .81426 1.8058 166.6 21.8 .073   4
2023 09 22 20  23 46 49.915   +12 50 00.01  .81455 1.8060 166.6 21.8 .074   4
2023 09 22 21  23 46 42.952   +12 50 34.20  .81484 1.8063 166.6 21.8 .075   4
2023 09 22 22  23 46 35.995   +12 51 08.32  .81513 1.8066 166.6 21.8 .075   4
2023 09 22 23  23 46 29.042   +12 51 42.39  .81543 1.8068 166.6 21.8 .076   4
2023 09 23 00  23 46 22.094   +12 52 16.40  .81572 1.8071 166.6 21.8 .076   3